Location: Newark
(34.9500°N, 139.9667°E)
Time: 01:35:04
(UTC+00:00)

Vanguard 2 Rocket - Pass Details

Date: 08 December 2019
Orbit: 554 x 3326 km, 32.9° (Epoch: 27 January)

Event Time Altitude Azimuth Distance (km) Brightness Sun altitude
Rises 07:06:41 0° 219° (SW) 7,067 13.1 3.1°
Reaches altitude 10° 07:12:25 10° 212° (SSW) 5,763 12.2 2.1°
Maximum altitude 07:26:27 36° 155° (SSE) 3,056 9.6 -0.5°
Drops below altitude 10° 07:35:24 10° 93° (E) 3,697 9.5 -2.1°
Enters shadow 07:38:08 - 84° (E) 4,342 9.8 -2.6°
Sets 07:38:11 0° 84° (E) 4,353 - -2.6°
